Flag for Netherlands Weather past 2 weeks in Dordrecht, Netherlands

Now
48 °F

Fog.


Feels Like: 48 °F
Forecast: 49 / 70 °F
Wind: 2 mph from East

Location: Rotterdam Zestienhoven Airport


UV Index: 3 (Moderate)

Visibility: 1 mi


Pressure: 30.09 "Hg

Humidity: 100%

Dew point: 48 °F

Location of DordrechtLocation

Historic Weather in Dordrecht

°F

Dordrecht temperature yesterday

Maximum temperature yesterday: 66 °F (at 3:25 PM)
Minimum temperature yesterday: 43 °F (at 6:55 AM)
Average temperature yesterday: 54 °F

Past Weeks' High & Low Weather Summary

 TemperatureHumidityPressure
High70 °F (Apr 20, 2:55 PM)100% (Apr 11, 6:25 AM)30.45 "Hg (Apr 11, 6:25 AM)
Low32 °F (Apr 16, 6:55 AM)39% (Apr 16, 6:25 PM)29.62 "Hg (Apr 21, 4:25 PM)
Average51 °F76%30.06 "Hg
* Reported Apr 9 12:25 AM — Apr 24 12:25 AM, Dordrecht, Weather by CustomWeather, © 2014

Note: Actual official high and low records may vary slightly from our data, if they occured in-between our weather recording intervals... More about our weather records

Advertising

Historic Weather Conditions — Data for Previous 24 hours

 ConditionsComfort  
Time TempWeatherWind HumidityBarometerVisibility
12:25 AM
Apr 24
50 °FFog.1 mph100%30.09 "Hg1 mi
11:55 PM
Apr 23
48 °FFog.1 mph100%30.09 "Hg2 mi
11:25 PM50 °FFog.2 mph94%30.09 "Hg2 mi
10:55 PM50 °FFog.2 mph94%30.09 "Hg3 mi
10:25 PM50 °FFog.2 mph94%30.09 "Hg3 mi
9:55 PM52 °FCool.2 mph88%30.09 "Hg4 mi
9:25 PM52 °FCool.1 mph88%30.09 "Hg4 mi
8:55 PM54 °FCool.2 mph82%30.09 "Hg6 mi
8:25 PM55 °FCool.5 mph82%30.09 "Hg6 mi
7:55 PM57 °FClear.5 mph77%30.09 "HgN/A
7:25 PM59 °FClear.5 mph72%30.09 "HgN/A
6:55 PM59 °FClear.7 mph72%30.09 "HgN/A
6:25 PM61 °FClear.9 mph68%30.07 "HgN/A
5:55 PM61 °FClear.8 mph68%30.09 "HgN/A
5:25 PM63 °FClear.7 mph64%30.07 "HgN/A
4:55 PM66 °FScattered clouds.7 mph60%30.07 "HgN/A
4:25 PM66 °FScattered clouds.7 mph64%30.07 "HgN/A
3:55 PM66 °FPassing clouds.3 mph52%30.07 "HgN/A
3:25 PM66 °FScattered clouds.2 mph56%30.09 "HgN/A
2:55 PM64 °FBroken clouds.5 mph60%30.09 "HgN/A
2:25 PM64 °FPartly sunny.3 mph56%30.09 "HgN/A
1:55 PM64 °FPassing clouds.2 mph60%30.09 "HgN/A
1:25 PM64 °FClear.3 mph60%30.09 "HgN/A
12:55 PM64 °FClear.3 mph60%30.09 "HgN/A
12:25 PM63 °FMild.3 mph64%30.09 "HgN/A
11:55 AM63 °FClear.3 mph64%30.09 "Hg6 mi
11:25 AM61 °FClear.5 mph63%30.09 "HgN/A
10:55 AM61 °FClear.3 mph59%30.09 "HgN/A
10:25 AM59 °FCool.5 mph68%30.09 "Hg6 mi
9:55 AM57 °FPassing clouds.5 mph72%30.07 "Hg5 mi
9:25 AM55 °FCool.2 mph82%30.07 "Hg4 mi
8:55 AM52 °FFog.2 mph88%30.07 "Hg3 mi
8:25 AM48 °FFog.1 mph94%30.07 "Hg3 mi
7:55 AM48 °FFog.5 mph94%30.07 "Hg3 mi
7:25 AM46 °FClear.1 mph93%30.07 "Hg4 mi
6:55 AM43 °FFog.2 mph100%30.04 "Hg3 mi
6:25 AM45 °FFog.2 mph100%30.04 "Hg3 mi
5:55 AM46 °FClear.1 mph100%30.04 "Hg6 mi
5:25 AM46 °FClear.2 mph100%30.04 "Hg4 mi
4:55 AM46 °FClear.2 mph100%30.04 "Hg6 mi
4:25 AM45 °FClear.1 mph100%30.04 "Hg5 mi
3:55 AM45 °FClear.1 mph100%30.01 "Hg5 mi
3:25 AM45 °FFog.1 mph100%30.01 "Hg3 mi
2:55 AM45 °FFog.1 mph100%30.01 "Hg2 mi
2:25 AM45 °FFog.2 mph100%30.01 "Hg2 mi
1:55 AM46 °FClear.1 mph100%30.01 "Hg4 mi
1:25 AM45 °FQuite cool.No wind100%30.01 "HgN/A
Weather by CustomWeather, © 2014

See weather overview